Regional Weather Roundup
Issued by NWS

Home | Current Version | Previous Version | Text Only | Print | Product List | Glossary On
Versions: 1 2 3 4 5 6 7 8 9 10 11 12 13 14 15 16 17 18 19 20 21 22 23 24 25 26 27 28 29 30 31 32 33 34 35 36 37 38 39 40 41 42 43 44 45 46 47 48 49 50
000
ASUS43 KLOT 241610
RWRIL

ILLINOIS REGIONAL WEATHER ROUNDUP
NATIONAL WEATHER SERVICE CHICAGO/ROMEOVILLE IL
1100 AM CDT FRI OCT 24 2014

NOTE: "FAIR" INDICATES FEW OR NO CLOUDS BELOW 12,000 FEET WITH NO
SIGNIFICANT WEATHER AND/OR OBSTRUCTIONS TO VISIBILITY.

* THESE STATIONS ARE NOT UNDER NWS QUALITY CONTROL. THEY ALSO MAY NOT
  REPORT WEATHER SUCH AS PRECIPITATION OR FOG.

ILZ001-002-007-009-015-016-024-241700-
NORTHWEST ILLINOIS

CITY           SKY/WX    TMP DP  RH WIND       PRES   REMARKS
MOLINE         CLOUDY    55  52  89 S9        30.07R FOG
STERLING*      CLOUDY    52  48  87 SE3       30.07S VSB 3/4
SAVANNA*       CLOUDY    53  52  95 S7        30.06S FOG
$$

ILZ003-004-008-010-011-017-018-241700-
NORTH CENTRAL ILLINOIS

CITY           SKY/WX    TMP DP  RH WIND       PRES   REMARKS
ROCKFORD       FOG       51  50  96 S7        30.08F VSB 3/4
FREEPORT*      CLOUDY    51  50  98 S5        30.07S FOG
ROCHELLE*      CLOUDY    51  49  93 S5        30.07F FOG
DE KALB*       PTSUNNY   54  49  82 S3        30.07S
PERU*          CLOUDY    51  50  98 CALM      30.08F FOG
$$

ILZ005-006-012>014-019>023-241700-
NORTHEAST ILLINOIS

CITY           SKY/WX    TMP DP  RH WIND       PRES   REMARKS
CHICAGO-OHARE  PTSUNNY   58  47  66 VRB6      30.05F
CHICAGO-MIDWAY PTSUNNY   60  49  66 NW6       30.06S
AURORA         MOSUNNY   58  48  69 CALM      30.06F
LANSING*       SUNNY     59  49  71 W3        30.06F
JOLIET*        SUNNY     58  49  71 W3        30.07F
WAUKEGAN       CLOUDY    52  49  89 CALM      30.05F FOG
DUPAGE AIRPORT MOSUNNY   60  48  64 S3        30.05F
WHEELING       MOSUNNY   60  49  66 VRB5      30.07F
MORRIS*        MOSUNNY   58  51  79 SW5       30.06F
ROMEOVILLE*    SUNNY     58  47  69 W3        30.06F
NORTHERLY ISL    N/A     59  47  64 SW3         N/A
$$

LMZ740>746-241700-
SOUTHERN LAKE MICHIGAN

STATION/POSITION SKY/WX   TEMP    WIND        PRES    VSBY  WAVE
                          AIR SEA DIR/SP/G                  HT/PER
                          (F)     (DEG/KT/KT) (MB)    (MI)  (FT/S)
SOUTHERN BUOY              52 54  250/  8/  8 1017.8F         1
WAUKEGAN HARBOR            53     270/  7/  8   N/A
HARRISON CRIB              56     170/  2/  2   N/A
BURNHAM HARBOR             59     280/  4/  6   N/A
CALUMET HARBOR             58     190/  3/  5 1016.8S
MICHIGAN CITY              55     240/  3/  4   N/A
$$

ILZ025>027-034>036-040-047-049-050-058-095>099-241700-
WEST-CENTRAL ILLINOIS

CITY           SKY/WX    TMP DP  RH WIND       PRES   REMARKS
QUINCY         FOG       56  55  97 SW8       30.10R VSB 1/4
GALESBURG*     FOG       53  53  99 S7        30.09S VSB 1/4
MACOMB*        FOG       54  54 100 S7        30.11S VSB 1/4
JACKSONVILLE*  CLOUDY    60  57  90 CALM      30.10F FOG
PITTSFIELD*    CLOUDY    58  57  94 SW3       30.11F FOG
$$

ILZ028>032-037-038-041>044-048-051>054-059>061-241700-
CENTRAL ILLINOIS

CITY           SKY/WX    TMP DP  RH WIND       PRES   REMARKS
PONTIAC        SUNNY     60  53  76 CALM      30.09F
BLOOMINGTON    SUNNY     62  55  77 SE5       30.09F
DECATUR        MOSUNNY   62  53  72 CALM      30.11S
PEORIA         PTSUNNY   56  52  86 S7        30.09S FOG
LACON*         PTSUNNY   53  52  95 CALM      30.07F FOG
LINCOLN*       MOSUNNY   61  55  81 CALM      30.08F HAZE
SPRINGFIELD    CLOUDY    56  55  97 SW5       30.11F FOG
TAYLORVILLE    CLOUDY    54  54 100 W6        30.11F FOG
$$

ILZ033-039-045-046-055>057-062-063-241700-
EAST-CENTRAL ILLINOIS

CITY           SKY/WX    TMP DP  RH WIND       PRES   REMARKS
CHAMPAIGN      SUNNY     59  51  75 CALM      30.10S
DANVILLE*      CLOUDY    56  49  79 SW5       30.08S
RANTOUL*       MOSUNNY   63  51  66 CALM      30.09F
MATTOON        SUNNY     60  50  69 CALM      30.10S
PARIS*         CLOUDY    61  51  69 SW3       30.11S
$$

ILZ079-100>102-241700-
SOUTHWEST ILLINOIS

CITY           SKY/WX    TMP DP  RH WIND       PRES   REMARKS
ALTON          CLOUDY    59  55  88 VRB5      30.13S
BELLEVILLE     CLOUDY    60  60  99 VRB5      30.12S FOG
CAHOKIA*       MOSUNNY   63  55  75 SW3       30.13S
SPARTA*        CLOUDY    58  55  88 W3        30.14S
$$

ILZ064>066-069>071-074>076-080>082-084>086-088>090-092>094-241700-
SOUTH-CENTRAL ILLINOIS

CITY           SKY/WX    TMP DP  RH WIND       PRES   REMARKS
CARBONDALE     CLOUDY    60  51  72 W5        30.13S
CAIRO*         MOSUNNY   64  50  60 W7        30.14S
EFFINGHAM*     SUNNY     61  49  64 CALM      30.11S
MARION         PTSUNNY   63  54  72 NW6       30.13S
MT. VERNON     CLOUDY    59  50  72 CALM      30.13S
CENTRALIA*     MOSUNNY   61  52  72 CALM      30.12S
SALEM*         MOSUNNY   63  56  79 SW5       30.12S
METROPOLIS*    MOSUNNY   60  53  76 W3        30.13F
$$

ILZ067-068-072-073-078-083-087-091-241700-
SOUTHEAST ILLINOIS

CITY           SKY/WX    TMP DP  RH WIND       PRES   REMARKS
LAWRENCEVILLE  PTSUNNY   60  49  66 S6        30.12F
FLORA*         SUNNY     62  51  67 CALM      30.12S
FAIRFIELD*     SUNNY     62  51  67 CALM      30.11S
HARRISBURG*    CLOUDY    62  53  71 NW3       30.13F
ROBINSON*      SUNNY     63  50  62 CALM      30.13F
CARMI*         SUNNY     62  51  68 CALM      30.12F
$$

ABBREVIATIONS USED IN REMARKS
   TC - TEMPERATURE IN CELSIUS
  WCI - WIND CHILL INDEX
   HX - HEAT INDEX
  VSB - VISIBILITY
$$




USA.gov is the U.S. government's official web portal to all federal, state and local government web resources and services.